FIN280 ENBR-ENSB

Flight info

Callsign FIN280
Flight time 2h 44m
Altitude 35000
Route INTUM DCT TABEV DCT 70N009E 75N012E DCT SUSES
Aircraft B738/M-SDE2E3FGHIRWXY/LB1

Departure

Time 2026-04-28 19:58
Airport Bergen Airport, Flesland (ENBR)

Arrival

Time 2026-04-28 22:43
Airport Svalbard Airport, Longyear (ENSB)
Time Latitude Longitude Altitude Speed Heading
2026-04-28 19:39 60.28967 5.22565 152 ft 0 kts 144°
2026-04-28 19:50 60.28990 5.22529 150 ft 8 kts 136°
2026-04-28 19:50 60.29033 5.22497 151 ft 8 kts 243°
2026-04-28 19:50 60.29037 5.22517 150 ft 0 kts 262°
2026-04-28 19:53 60.29035 5.22472 150 ft 11 kts 266°
2026-04-28 19:53 60.28984 5.22380 150 ft 11 kts 177°
2026-04-28 19:53 60.28921 5.22318 149 ft 11 kts 221°
2026-04-28 19:54 60.28847 5.22306 149 ft 11 kts 171°
2026-04-28 19:54 60.28758 5.22337 148 ft 16 kts 170°
2026-04-28 19:54 60.28622 5.22383 147 ft 23 kts 171°
2026-04-28 19:54 60.28446 5.22441 146 ft 27 kts 171°
2026-04-28 19:55 60.28321 5.22476 144 ft 13 kts 187°
2026-04-28 19:55 60.28283 5.22385 144 ft 2 kts 257°
2026-04-28 19:55 60.28283 5.22371 144 ft 0 kts 264°
2026-04-28 19:56 60.28282 5.22364 144 ft 1 kts 264°
2026-04-28 19:56 60.28280 5.22309 144 ft 9 kts 264°
2026-04-28 19:57 60.28312 5.22166 145 ft 13 kts 335°
2026-04-28 19:57 60.28412 5.22129 146 ft 27 kts 349°
2026-04-28 19:57 60.28817 5.21989 148 ft 90 kts 350°
2026-04-28 19:57 60.29610 5.21729 156 ft 142 kts 351°
2026-04-28 19:58 60.30701 5.21337 369 ft 167 kts 350°
2026-04-28 19:58 60.31838 5.21024 1088 ft 166 kts 353°
2026-04-28 19:58 60.32966 5.20713 1820 ft 164 kts 351°
2026-04-28 19:58 60.34153 5.20305 2163 ft 186 kts 351°
2026-04-28 19:59 60.35494 5.19857 2384 ft 206 kts 351°
2026-04-28 19:59 60.36973 5.19357 2623 ft 222 kts 351°
2026-04-28 19:59 60.38520 5.18912 3137 ft 226 kts 360°
2026-04-28 19:59 60.40082 5.19298 3714 ft 227 kts 10°
2026-04-28 20:00 60.41643 5.19870 4273 ft 229 kts
2026-04-28 20:00 60.43192 5.20428 4838 ft 230 kts
2026-04-28 20:00 60.44771 5.20989 5387 ft 234 kts
2026-04-28 20:00 60.46443 5.21573 5689 ft 251 kts
2026-04-28 20:01 60.48174 5.22170 6368 ft 253 kts
2026-04-28 20:01 60.49913 5.22765 7088 ft 254 kts
2026-04-28 20:01 60.51671 5.23361 7734 ft 257 kts
2026-04-28 20:01 60.53442 5.23957 8390 ft 259 kts
2026-04-28 20:02 60.55220 5.24554 9056 ft 261 kts
2026-04-28 20:02 60.57029 5.25159 9723 ft 263 kts
2026-04-28 20:02 60.58845 5.25764 10326 ft 269 kts
2026-04-28 20:02 60.60742 5.26393 10484 ft 289 kts
2026-04-28 20:03 60.62812 5.27078 10637 ft 308 kts
2026-04-28 20:03 60.64986 5.27799 10794 ft 326 kts
2026-04-28 20:03 60.67284 5.28563 10929 ft 343 kts
2026-04-28 20:03 60.69689 5.29363 11057 ft 358 kts
2026-04-28 20:04 60.72174 5.30193 11416 ft 365 kts
2026-04-28 20:04 60.74690 5.31036 11962 ft 366 kts
2026-04-28 20:04 60.77216 5.31884 12525 ft 368 kts
2026-04-28 20:04 60.79716 5.32724 13099 ft 369 kts
2026-04-28 20:05 60.82256 5.33578 13738 ft 370 kts
2026-04-28 20:05 60.84801 5.34434 14317 ft 372 kts
2026-04-28 20:05 60.87362 5.35295 14833 ft 374 kts
2026-04-28 20:05 60.89943 5.36166 15384 ft 375 kts
2026-04-28 20:06 60.92525 5.37038 15961 ft 376 kts
2026-04-28 20:06 60.95111 5.37912 16520 ft 378 kts
2026-04-28 20:06 60.97714 5.38793 17034 ft 380 kts
2026-04-28 20:06 61.00334 5.39682 17551 ft 382 kts
2026-04-28 20:07 61.02966 5.40576 18097 ft 384 kts
2026-04-28 20:07 61.04714 5.41171 18440 ft 385 kts
2026-04-28 20:07 61.08260 5.42378 19046 ft 387 kts
2026-04-28 20:07 61.10934 5.43291 19435 ft 390 kts
2026-04-28 20:08 61.13620 5.44211 19834 ft 393 kts
2026-04-28 20:08 61.16295 5.45126 20222 ft 395 kts
2026-04-28 20:08 61.19025 5.46064 20608 ft 398 kts
2026-04-28 20:08 61.21761 5.47005 20989 ft 400 kts
2026-04-28 20:09 61.24520 5.47955 21372 ft 403 kts
2026-04-28 20:09 61.27293 5.48913 21694 ft 406 kts
2026-04-28 20:09 61.30086 5.49878 22058 ft 408 kts
2026-04-28 20:09 61.32891 5.50850 22438 ft 410 kts
2026-04-28 20:10 61.35713 5.51829 22799 ft 412 kts
2026-04-28 20:10 61.38548 5.52814 23116 ft 414 kts
2026-04-28 20:10 61.41401 5.53807 23419 ft 417 kts
2026-04-28 20:10 61.44275 5.54810 23765 ft 419 kts
2026-04-28 20:11 61.47122 5.55805 24091 ft 421 kts
2026-04-28 20:11 61.50019 5.56821 24373 ft 423 kts
2026-04-28 20:11 61.52930 5.57842 24613 ft 425 kts
2026-04-28 20:11 61.55862 5.58872 24876 ft 427 kts
2026-04-28 20:12 61.58803 5.59908 25136 ft 429 kts
2026-04-28 20:12 61.61752 5.60949 25403 ft 430 kts
2026-04-28 20:12 61.64710 5.61995 25656 ft 432 kts
2026-04-28 20:12 61.66676 5.62691 25827 ft 433 kts
2026-04-28 20:13 61.70649 5.64101 26209 ft 433 kts
2026-04-28 20:13 61.73619 5.65160 26552 ft 432 kts
2026-04-28 20:13 61.76576 5.66215 26931 ft 430 kts
2026-04-28 20:13 61.79528 5.67269 27291 ft 429 kts
2026-04-28 20:14 61.82481 5.68324 27622 ft 430 kts
2026-04-28 20:14 61.85393 5.69367 27895 ft 430 kts
2026-04-28 20:14 61.88340 5.70425 28244 ft 429 kts
2026-04-28 20:14 61.91285 5.71486 28613 ft 428 kts
2026-04-28 20:15 61.94222 5.72545 28939 ft 428 kts
2026-04-28 20:15 61.97155 5.73605 29293 ft 427 kts
2026-04-28 20:15 62.00079 5.74663 29640 ft 426 kts
2026-04-28 20:15 62.03000 5.75722 29974 ft 426 kts
2026-04-28 20:16 62.05925 5.76785 30301 ft 425 kts
2026-04-28 20:16 62.08840 5.77847 30655 ft 424 kts
2026-04-28 20:16 62.11738 5.78906 31119 ft 419 kts
2026-04-28 20:16 62.14608 5.79956 31482 ft 417 kts
2026-04-28 20:17 62.17473 5.81004 31732 ft 418 kts
2026-04-28 20:17 62.20304 5.82041 31967 ft 418 kts
2026-04-28 20:17 62.23164 5.83091 32256 ft 417 kts
2026-04-28 20:17 62.26017 5.84143 32571 ft 415 kts
2026-04-28 20:18 62.28860 5.85192 32858 ft 414 kts
2026-04-28 20:18 62.30777 5.85901 33021 ft 413 kts
2026-04-28 20:18 62.34529 5.87290 33370 ft 412 kts
2026-04-28 20:18 62.37357 5.88339 33620 ft 412 kts
2026-04-28 20:19 62.40176 5.89387 33893 ft 411 kts
2026-04-28 20:19 62.42994 5.90438 34132 ft 411 kts
2026-04-28 20:19 62.45806 5.91487 34351 ft 410 kts
2026-04-28 20:19 62.48624 5.92541 34568 ft 410 kts
2026-04-28 20:20 62.51436 5.93594 34714 ft 411 kts
2026-04-28 20:20 62.54256 5.94652 34849 ft 411 kts
2026-04-28 20:20 62.57078 5.95714 35018 ft 411 kts
2026-04-28 20:20 62.59892 5.96774 35190 ft 410 kts
2026-04-28 20:21 62.62704 5.97837 35367 ft 410 kts
2026-04-28 20:21 62.68339 5.99970 35450 ft 412 kts
2026-04-28 20:22 62.73941 6.02100 35458 ft 410 kts
2026-04-28 20:22 62.79561 6.04245 35450 ft 408 kts
2026-04-28 20:23 62.85152 6.06388 35455 ft 407 kts
2026-04-28 20:23 62.90734 6.08534 35444 ft 407 kts
2026-04-28 20:24 62.96303 6.10684 35446 ft 406 kts
2026-04-28 20:24 63.01892 6.12849 35451 ft 407 kts
2026-04-28 20:25 63.07439 6.15006 35445 ft 408 kts
2026-04-28 20:25 63.13035 6.17191 35438 ft 409 kts
2026-04-28 20:26 63.18651 6.19393 35437 ft 410 kts
2026-04-28 20:26 63.24272 6.21607 35429 ft 410 kts
2026-04-28 20:27 63.29900 6.23831 35442 ft 411 kts
2026-04-28 20:27 63.35496 6.26052 35431 ft 411 kts
2026-04-28 20:28 63.41138 6.28299 35423 ft 411 kts
2026-04-28 20:28 63.46778 6.30555 35422 ft 411 kts
2026-04-28 20:29 63.52414 6.32818 35410 ft 411 kts
2026-04-28 20:29 63.58049 6.35091 35414 ft 411 kts
2026-04-28 20:30 63.63676 6.37369 35416 ft 411 kts
2026-04-28 20:30 63.69309 6.39658 35415 ft 411 kts
2026-04-28 20:31 63.74905 6.41942 35406 ft 411 kts
2026-04-28 20:31 63.80548 6.44254 35396 ft 411 kts
2026-04-28 20:32 63.86175 6.46569 35395 ft 411 kts
2026-04-28 20:32 63.91802 6.48893 35407 ft 411 kts
2026-04-28 20:33 63.97443 6.51233 35384 ft 411 kts
2026-04-28 20:33 64.03040 6.53564 35385 ft 411 kts
2026-04-28 20:34 64.08675 6.55920 35385 ft 411 kts
2026-04-28 20:34 64.14304 6.58284 35377 ft 411 kts
2026-04-28 20:35 64.19936 6.60658 35381 ft 411 kts
2026-04-28 20:35 64.24624 6.62643 35377 ft 412 kts
2026-04-28 20:36 64.30267 6.65039 35372 ft 412 kts
2026-04-28 20:36 64.35906 6.67445 35364 ft 412 kts
2026-04-28 20:37 64.41551 6.69864 35362 ft 412 kts
2026-04-28 20:37 64.47200 6.72294 35357 ft 412 kts
2026-04-28 20:38 64.52807 6.74717 35356 ft 412 kts
2026-04-28 20:38 64.58450 6.77165 35353 ft 412 kts
2026-04-28 20:39 64.64101 6.79627 35353 ft 412 kts
2026-04-28 20:39 64.69749 6.82098 35353 ft 412 kts
2026-04-28 20:40 64.75392 6.84577 35356 ft 412 kts
2026-04-28 20:40 64.81039 6.87069 35356 ft 412 kts
2026-04-28 20:41 64.86653 6.89556 35350 ft 413 kts
2026-04-28 20:41 64.92340 6.92087 35347 ft 413 kts
2026-04-28 20:42 64.97956 6.94597 35336 ft 413 kts
2026-04-28 20:42 65.03602 6.97131 35337 ft 413 kts
2026-04-28 20:43 65.09249 6.99677 35332 ft 413 kts
2026-04-28 20:43 65.14893 7.02232 35350 ft 413 kts
2026-04-28 20:44 65.20544 7.04801 35330 ft 413 kts
2026-04-28 20:44 65.26201 7.07385 35325 ft 414 kts
2026-04-28 20:45 65.31827 7.09965 35326 ft 414 kts
2026-04-28 20:45 65.37487 7.12573 35318 ft 414 kts
2026-04-28 20:46 65.43145 7.15191 35321 ft 414 kts
2026-04-28 20:46 65.48801 7.17820 35319 ft 414 kts
2026-04-28 20:47 65.54455 7.20460 35315 ft 414 kts
2026-04-28 20:47 65.60067 7.23091 35309 ft 413 kts
2026-04-28 20:48 65.65714 7.25751 35306 ft 413 kts
2026-04-28 20:48 65.71361 7.28422 35305 ft 413 kts
2026-04-28 20:49 65.77002 7.31103 35314 ft 413 kts
2026-04-28 20:49 65.82654 7.33800 35297 ft 413 kts
2026-04-28 20:50 65.88300 7.36507 35296 ft 413 kts
2026-04-28 20:50 65.93943 7.39225 35296 ft 413 kts
2026-04-28 20:51 65.99550 7.41937 35294 ft 413 kts
2026-04-28 20:51 66.05189 7.44604 35293 ft 412 kts
2026-04-28 20:52 66.10854 7.46585 35290 ft 411 kts
2026-04-28 20:52 66.16523 7.48366 35286 ft 411 kts
2026-04-28 20:53 66.25041 7.51135 35277 ft 411 kts
2026-04-28 20:53 66.30715 7.53039 35278 ft 411 kts
2026-04-28 20:54 66.36391 7.54963 35276 ft 411 kts
2026-04-28 20:54 66.42035 7.56888 35286 ft 412 kts
2026-04-28 20:55 66.47719 7.58833 35263 ft 412 kts
2026-04-28 20:55 66.53412 7.60791 35272 ft 412 kts
2026-04-28 20:56 66.59099 7.62755 35266 ft 412 kts
2026-04-28 20:56 66.64784 7.64728 35266 ft 412 kts
2026-04-28 20:57 66.70469 7.66710 35263 ft 412 kts
2026-04-28 20:57 66.76160 7.68703 35263 ft 413 kts
2026-04-28 20:58 66.81826 7.70697 35259 ft 413 kts
2026-04-28 20:58 66.87525 7.72712 35253 ft 413 kts
2026-04-28 20:59 66.93227 7.74738 35250 ft 413 kts
2026-04-28 20:59 66.98938 7.76777 35245 ft 413 kts
2026-04-28 21:00 67.04645 7.78824 35263 ft 414 kts
2026-04-28 21:00 67.10361 7.80882 35246 ft 414 kts
2026-04-28 21:01 67.16043 7.82939 35239 ft 415 kts
2026-04-28 21:01 67.21771 7.85023 35240 ft 415 kts
2026-04-28 21:02 67.27494 7.87115 35234 ft 415 kts
2026-04-28 21:02 67.33219 7.89218 35234 ft 415 kts
2026-04-28 21:03 67.38909 7.91318 35232 ft 416 kts
2026-04-28 21:03 67.44641 7.93443 35230 ft 416 kts
2026-04-28 21:04 67.50383 7.95582 35220 ft 417 kts
2026-04-28 21:04 67.56126 7.97734 35221 ft 417 kts
2026-04-28 21:05 67.61864 7.99893 35215 ft 417 kts
2026-04-28 21:05 67.67618 8.02069 35215 ft 417 kts
2026-04-28 21:06 67.73361 8.04252 35212 ft 417 kts
2026-04-28 21:06 67.79117 8.06451 35209 ft 417 kts
2026-04-28 21:07 67.84821 8.08640 35209 ft 417 kts
2026-04-28 21:07 67.90564 8.10855 35210 ft 417 kts
2026-04-28 21:08 67.96315 8.13085 35209 ft 417 kts
2026-04-28 21:08 68.02060 8.15323 35212 ft 418 kts
2026-04-28 21:09 68.07818 8.17577 35206 ft 418 kts
2026-04-28 21:09 68.13580 8.19845 35196 ft 419 kts
2026-04-28 21:10 68.19348 8.22126 35196 ft 419 kts
2026-04-28 21:10 68.25123 8.24423 35196 ft 419 kts
2026-04-28 21:11 68.30892 8.26728 35193 ft 419 kts
2026-04-28 21:11 68.36667 8.29047 35199 ft 420 kts
2026-04-28 21:12 68.42417 8.31368 35187 ft 421 kts
2026-04-28 21:12 68.48220 8.33723 35184 ft 421 kts
2026-04-28 21:13 68.54013 8.36087 35182 ft 421 kts
2026-04-28 21:13 68.59820 8.38469 35178 ft 421 kts
2026-04-28 21:14 68.65630 8.40864 35200 ft 422 kts
2026-04-28 21:14 68.71405 8.43256 35182 ft 422 kts
2026-04-28 21:15 68.77257 8.45693 35178 ft 423 kts
2026-04-28 21:15 68.83050 8.48120 35173 ft 423 kts
2026-04-28 21:16 68.88881 8.50575 35175 ft 423 kts
2026-04-28 21:16 68.94709 8.53042 35170 ft 423 kts
2026-04-28 21:17 69.00504 8.55508 35181 ft 424 kts
2026-04-28 21:17 69.06343 8.58004 35167 ft 425 kts
2026-04-28 21:18 69.12195 8.60522 35163 ft 425 kts
2026-04-28 21:18 69.18044 8.63052 35160 ft 425 kts
2026-04-28 21:19 69.23890 8.65595 35160 ft 425 kts
2026-04-28 21:19 69.28757 8.67722 35158 ft 425 kts
2026-04-28 21:20 69.34607 8.70289 35159 ft 426 kts
2026-04-28 21:20 69.41425 8.73301 35166 ft 427 kts
2026-04-28 21:21 69.46347 8.75488 35147 ft 427 kts
2026-04-28 21:21 69.52186 8.78095 35153 ft 427 kts
2026-04-28 21:22 69.58060 8.80733 35145 ft 427 kts
2026-04-28 21:22 69.63921 8.83380 35147 ft 427 kts
2026-04-28 21:23 69.69828 8.86060 35155 ft 428 kts
2026-04-28 21:23 69.75686 8.88735 35143 ft 429 kts
2026-04-28 21:24 69.81589 8.91446 35143 ft 429 kts
2026-04-28 21:24 69.87491 8.94171 35138 ft 429 kts
2026-04-28 21:25 69.93390 8.96911 35138 ft 429 kts
2026-04-28 21:25 69.99299 8.99669 35161 ft 430 kts
2026-04-28 21:26 70.05217 9.02393 35145 ft 431 kts
2026-04-28 21:26 70.11147 9.05087 35134 ft 431 kts
2026-04-28 21:27 70.17048 9.07785 35131 ft 432 kts
2026-04-28 21:27 70.22987 9.10522 35134 ft 432 kts
2026-04-28 21:28 70.28952 9.13288 35400 ft 433 kts
2026-04-28 21:28 70.31931 9.14679 35613 ft 433 kts
2026-04-28 21:28 70.34916 9.16074 35694 ft 435 kts
2026-04-28 21:29 70.37911 9.17478 35849 ft 435 kts
2026-04-28 21:29 70.40901 9.18886 36053 ft 434 kts
2026-04-28 21:29 70.43887 9.20299 36256 ft 434 kts
2026-04-28 21:29 70.46867 9.21711 36404 ft 434 kts
2026-04-28 21:30 70.49863 9.23132 36522 ft 435 kts
2026-04-28 21:30 70.52815 9.24536 36658 ft 435 kts
2026-04-28 21:30 70.58810 9.27401 36721 ft 438 kts
2026-04-28 21:31 70.64819 9.30294 36754 ft 436 kts
2026-04-28 21:31 70.70811 9.33198 36731 ft 435 kts
2026-04-28 21:32 70.76792 9.36112 36723 ft 435 kts
2026-04-28 21:32 70.82766 9.39039 36720 ft 434 kts
2026-04-28 21:33 70.88741 9.41983 36720 ft 435 kts
2026-04-28 21:33 70.94676 9.44926 36721 ft 435 kts
2026-04-28 21:34 71.00656 9.47909 36720 ft 435 kts
2026-04-28 21:34 71.06640 9.50913 36721 ft 436 kts
2026-04-28 21:35 71.12646 9.53946 36719 ft 437 kts
2026-04-28 21:35 71.18661 9.57004 36717 ft 438 kts
2026-04-28 21:36 71.24681 9.60084 36718 ft 439 kts
2026-04-28 21:36 71.30676 9.63170 36718 ft 439 kts
2026-04-28 21:37 71.36725 9.66302 36718 ft 441 kts
2026-04-28 21:37 71.42779 9.69459 36711 ft 441 kts
2026-04-28 21:38 71.48837 9.72637 36712 ft 442 kts
2026-04-28 21:38 71.54899 9.75839 36715 ft 442 kts
2026-04-28 21:39 71.60969 9.79066 36718 ft 442 kts
2026-04-28 21:39 71.67002 9.82292 36737 ft 442 kts
2026-04-28 21:40 71.73066 9.85556 36721 ft 442 kts
2026-04-28 21:40 71.79137 9.88845 36711 ft 442 kts
2026-04-28 21:41 71.85208 9.92157 36709 ft 442 kts
2026-04-28 21:41 71.91272 9.95486 36716 ft 442 kts
2026-04-28 21:42 71.97330 9.98834 36715 ft 441 kts
2026-04-28 21:42 72.03386 10.02202 36718 ft 442 kts
2026-04-28 21:43 72.09418 10.05579 36716 ft 442 kts
2026-04-28 21:43 72.15478 10.08995 36717 ft 442 kts
2026-04-28 21:44 72.21548 10.12439 36711 ft 442 kts
2026-04-28 21:44 72.27569 10.15879 36712 ft 442 kts
2026-04-28 21:45 72.33634 10.19366 36714 ft 442 kts
2026-04-28 21:45 72.39703 10.22876 36722 ft 443 kts
2026-04-28 21:46 72.45790 10.26426 36714 ft 443 kts
2026-04-28 21:46 72.51872 10.29996 36712 ft 444 kts
2026-04-28 21:47 72.57923 10.33573 36715 ft 444 kts
2026-04-28 21:47 72.64012 10.37196 36715 ft 445 kts
2026-04-28 21:48 72.70110 10.40849 36736 ft 445 kts
2026-04-28 21:48 72.76219 10.44534 36724 ft 446 kts
2026-04-28 21:49 72.82336 10.48251 36712 ft 446 kts
2026-04-28 21:49 72.88415 10.51971 36717 ft 447 kts
2026-04-28 21:50 72.94533 10.55740 36711 ft 447 kts
2026-04-28 21:50 73.00653 10.59538 36717 ft 447 kts
2026-04-28 21:51 73.06777 10.63364 36722 ft 448 kts
2026-04-28 21:51 73.12907 10.67222 36720 ft 448 kts
2026-04-28 21:52 73.19040 10.71110 36714 ft 448 kts
2026-04-28 21:52 73.25170 10.75025 36717 ft 448 kts
2026-04-28 21:53 73.31257 10.78940 36717 ft 448 kts
2026-04-28 21:53 73.37381 10.82907 36747 ft 447 kts
2026-04-28 21:54 73.43514 10.86908 36721 ft 448 kts
2026-04-28 21:54 73.49643 10.90936 36715 ft 448 kts
2026-04-28 21:55 73.55773 10.94996 36716 ft 448 kts
2026-04-28 21:55 73.61862 10.99059 36714 ft 448 kts
2026-04-28 21:56 73.67990 11.03177 36717 ft 448 kts
2026-04-28 21:56 73.74121 11.07328 36729 ft 448 kts
2026-04-28 21:57 73.80252 11.11514 36726 ft 449 kts
2026-04-28 21:57 73.86389 11.15732 36705 ft 449 kts
2026-04-28 21:58 73.92530 11.19979 36703 ft 449 kts
2026-04-28 21:58 73.98670 11.24264 36702 ft 449 kts
2026-04-28 21:59 74.04773 11.28556 36700 ft 449 kts
2026-04-28 22:00 74.13984 11.35089 36710 ft 449 kts
2026-04-28 22:00 74.20130 11.39498 36702 ft 449 kts
2026-04-28 22:01 74.26261 11.43932 36708 ft 449 kts
2026-04-28 22:01 74.32402 11.48396 36704 ft 449 kts
2026-04-28 22:02 74.38497 11.52861 36707 ft 449 kts
2026-04-28 22:02 74.44619 11.57391 36702 ft 449 kts
2026-04-28 22:03 74.50758 11.61971 36712 ft 448 kts
2026-04-28 22:03 74.56882 11.66565 36716 ft 448 kts
2026-04-28 22:04 74.62965 11.71161 36713 ft 448 kts
2026-04-28 22:04 74.69083 11.75833 36709 ft 449 kts
2026-04-28 22:05 74.75205 11.80543 36724 ft 449 kts
2026-04-28 22:05 74.81338 11.85287 36721 ft 450 kts
2026-04-28 22:06 74.87470 11.90078 36710 ft 450 kts
2026-04-28 22:06 74.93471 11.94814 36713 ft 450 kts
2026-04-28 22:07 74.99616 11.99685 36707 ft 450 kts
2026-04-28 22:07 75.05738 12.04963 36711 ft 451 kts
2026-04-28 22:08 75.11857 12.10596 36738 ft 451 kts 10°
2026-04-28 22:08 75.17973 12.16267 36724 ft 452 kts
2026-04-28 22:09 75.24104 12.21938 36711 ft 452 kts
2026-04-28 22:09 75.29193 12.26663 36710 ft 452 kts
2026-04-28 22:10 75.35311 12.32369 36711 ft 452 kts
2026-04-28 22:10 75.41374 12.38088 36715 ft 451 kts 10°
2026-04-28 22:11 75.47535 12.43938 36736 ft 451 kts 10°
2026-04-28 22:11 75.53649 12.49808 36724 ft 451 kts
2026-04-28 22:12 75.59711 12.55676 36712 ft 451 kts
2026-04-28 22:12 75.65813 12.61617 36715 ft 451 kts
2026-04-28 22:13 75.71915 12.67622 36721 ft 451 kts 11°
2026-04-28 22:13 75.78012 12.73677 36721 ft 450 kts 10°
2026-04-28 22:14 75.84105 12.79780 36721 ft 451 kts
2026-04-28 22:14 75.90171 12.85912 36725 ft 451 kts
2026-04-28 22:15 75.96273 12.92115 36721 ft 451 kts 10°
2026-04-28 22:15 76.02371 12.98377 36723 ft 452 kts 11°
2026-04-28 22:16 76.08474 13.04695 36721 ft 452 kts 11°
2026-04-28 22:16 76.14583 13.11095 36723 ft 452 kts 10°
2026-04-28 22:17 76.20659 13.17511 36731 ft 453 kts
2026-04-28 22:17 76.26775 13.24003 36721 ft 454 kts 11°
2026-04-28 22:18 76.32904 13.30600 36715 ft 454 kts 11°
2026-04-28 22:18 76.39026 13.37238 36723 ft 454 kts 11°
2026-04-28 22:19 76.45159 13.43935 36738 ft 455 kts 10°
2026-04-28 22:19 76.51285 13.50710 36767 ft 455 kts 11°
2026-04-28 22:20 76.57379 13.57501 36748 ft 456 kts 12°
2026-04-28 22:20 76.63566 13.64452 36197 ft 463 kts 12°
2026-04-28 22:20 76.66672 13.67973 35634 ft 460 kts 11°
2026-04-28 22:21 76.69768 13.71503 35008 ft 459 kts 12°
2026-04-28 22:21 76.72860 13.75044 34383 ft 459 kts 11°
2026-04-28 22:21 76.75946 13.78583 33711 ft 458 kts 12°
2026-04-28 22:21 76.79027 13.82137 32996 ft 457 kts 12°
2026-04-28 22:22 76.82065 13.85664 32303 ft 457 kts 12°
2026-04-28 22:22 76.85138 13.89238 31579 ft 458 kts 12°
2026-04-28 22:22 76.88222 13.92844 30876 ft 458 kts 13°
2026-04-28 22:22 76.91312 13.96468 30123 ft 460 kts 12°
2026-04-28 22:23 76.94410 14.00134 29229 ft 461 kts 13°
2026-04-28 22:23 76.97509 14.03825 28384 ft 461 kts 13°
2026-04-28 22:23 77.00614 14.07535 27529 ft 462 kts 13°
2026-04-28 22:23 77.03728 14.11277 26636 ft 463 kts 13°
2026-04-28 22:24 77.06849 14.15036 25730 ft 465 kts 13°
2026-04-28 22:24 77.09914 14.18750 25111 ft 460 kts 13°
2026-04-28 22:24 77.12999 14.22507 24462 ft 456 kts 13°
2026-04-28 22:24 77.16048 14.26239 23814 ft 453 kts 13°
2026-04-28 22:25 77.19080 14.29965 23068 ft 450 kts 13°
2026-04-28 22:25 77.22081 14.33672 22396 ft 445 kts 13°
2026-04-28 22:25 77.25052 14.37359 21747 ft 441 kts 13°
2026-04-28 22:25 77.27998 14.41032 21115 ft 436 kts 13°
2026-04-28 22:26 77.30915 14.44685 20481 ft 432 kts 13°
2026-04-28 22:26 77.33803 14.48319 19856 ft 428 kts 13°
2026-04-28 22:26 77.36663 14.51934 19247 ft 424 kts 13°
2026-04-28 22:26 77.39499 14.55536 18648 ft 421 kts 13°
2026-04-28 22:27 77.42309 14.59120 17976 ft 418 kts 13°
2026-04-28 22:27 77.45098 14.62694 17325 ft 415 kts 13°
2026-04-28 22:27 77.47870 14.66261 16674 ft 411 kts 13°
2026-04-28 22:27 77.50611 14.69806 16101 ft 407 kts 13°
2026-04-28 22:28 77.53295 14.73293 15504 ft 404 kts 14°
2026-04-28 22:28 77.55990 14.76808 14931 ft 401 kts 14°
2026-04-28 22:28 77.58673 14.80323 14341 ft 399 kts 14°
2026-04-28 22:28 77.61335 14.83826 13717 ft 397 kts 14°
2026-04-28 22:29 77.63991 14.87337 13076 ft 395 kts 14°
2026-04-28 22:29 77.66621 14.90830 12459 ft 392 kts 14°
2026-04-28 22:29 77.69241 14.94324 11869 ft 389 kts 14°
2026-04-28 22:29 77.71838 14.97803 11433 ft 383 kts 15°
2026-04-28 22:30 77.74357 15.01190 11284 ft 370 kts 15°
2026-04-28 22:30 77.76787 15.04473 11120 ft 358 kts 15°
2026-04-28 22:30 77.79112 15.07628 10969 ft 347 kts 15°
2026-04-28 22:30 77.81345 15.11525 10809 ft 338 kts 28°
2026-04-28 22:31 77.83212 15.17978 10663 ft 328 kts 45°
2026-04-28 22:31 77.84714 15.25910 10530 ft 318 kts 51°
2026-04-28 22:31 77.86104 15.33942 10386 ft 310 kts 52°
2026-04-28 22:31 77.87426 15.41721 10246 ft 302 kts 52°
2026-04-28 22:32 77.88729 15.49404 10068 ft 296 kts 52°
2026-04-28 22:32 77.90023 15.57015 9766 ft 295 kts 52°
2026-04-28 22:32 77.91310 15.64573 9472 ft 293 kts 52°
2026-04-28 22:32 77.92591 15.72097 9184 ft 291 kts 52°
2026-04-28 22:33 77.93862 15.79567 8898 ft 289 kts 53°
2026-04-28 22:33 77.95126 15.87014 8610 ft 287 kts 53°
2026-04-28 22:33 77.96391 15.94487 8145 ft 293 kts 53°
2026-04-28 22:33 77.97650 16.01955 7827 ft 293 kts 53°
2026-04-28 22:34 77.98953 16.09694 7517 ft 292 kts 53°
2026-04-28 22:34 78.00224 16.17278 7257 ft 289 kts 53°
2026-04-28 22:34 78.01468 16.24704 7137 ft 281 kts 53°
2026-04-28 22:34 78.02660 16.31841 7000 ft 270 kts 54°
2026-04-28 22:35 78.03797 16.38694 6927 ft 255 kts 54°
2026-04-28 22:35 78.04872 16.45197 6837 ft 241 kts 54°
2026-04-28 22:35 78.05890 16.51374 6775 ft 230 kts 54°
2026-04-28 22:35 78.06866 16.57308 6568 ft 221 kts 54°
2026-04-28 22:36 78.07941 16.62389 6312 ft 214 kts 26°
2026-04-28 22:36 78.09351 16.63522 6146 ft 204 kts 347°
2026-04-28 22:36 78.10626 16.60959 5972 ft 197 kts 316°
2026-04-28 22:36 78.11502 16.56252 5741 ft 180 kts 297°
2026-04-28 22:37 78.12150 16.51371 5570 ft 169 kts 294°
2026-04-28 22:37 78.12766 16.46530 5403 ft 167 kts 292°
2026-04-28 22:37 78.13362 16.41825 5251 ft 165 kts 293°
2026-04-28 22:37 78.13961 16.37099 5022 ft 164 kts 294°
2026-04-28 22:38 78.14561 16.32408 4744 ft 162 kts 293°
2026-04-28 22:38 78.15151 16.27742 4552 ft 163 kts 294°
2026-04-28 22:38 78.15759 16.22948 4231 ft 167 kts 295°
2026-04-28 22:38 78.16367 16.18173 3948 ft 164 kts 295°
2026-04-28 22:39 78.16954 16.13547 3721 ft 162 kts 295°
2026-04-28 22:39 78.17550 16.08831 3459 ft 164 kts 296°
2026-04-28 22:39 78.18153 16.04091 3187 ft 164 kts 297°
2026-04-28 22:39 78.18793 15.99476 2895 ft 164 kts 301°
2026-04-28 22:40 78.19446 15.94963 2634 ft 161 kts 304°
2026-04-28 22:40 78.20155 15.90768 2435 ft 160 kts 308°
2026-04-28 22:40 78.20872 15.86526 2232 ft 162 kts 306°
2026-04-28 22:40 78.21541 15.82095 1926 ft 162 kts 303°
2026-04-28 22:41 78.22178 15.77573 1573 ft 160 kts 304°
2026-04-28 22:41 78.22801 15.73092 1102 ft 160 kts 300°
2026-04-28 22:41 78.23311 15.68353 758 ft 153 kts 293°
2026-04-28 22:41 78.23681 15.63511 570 ft 151 kts 287°
2026-04-28 22:42 78.23971 15.58576 454 ft 155 kts 281°
2026-04-28 22:42 78.24241 15.53389 215 ft 157 kts 283°
2026-04-28 22:42 78.24523 15.48318 96 ft 146 kts 283°
2026-04-28 22:42 78.24743 15.44155 87 ft 90 kts 286°
2026-04-28 22:43 78.24832 15.42622 88 ft 31 kts 286°
2026-04-28 22:43 78.24869 15.42141 87 ft 5 kts 211°
2026-04-28 22:43 78.24849 15.42240 88 ft 5 kts 101°
2026-04-28 22:43 78.24806 15.43021 90 ft 65 kts 106°
2026-04-28 22:44 78.24608 15.46499 89 ft 125 kts 108°
2026-04-28 22:44 78.24463 15.49247 87 ft 19 kts 83°
2026-04-28 22:44 78.24533 15.49484 87 ft 11 kts 16°
2026-04-28 22:44 78.24566 15.49529 90 ft 0 kts 15°